Back to catalog

STARLINK-31487

AliveCommunicationsVLEO
NORAD 59297·PAYLOAD·🇺🇸 United States

Launched Mar 24, 2024 from Cape Canaveral Space Force Station

Loading…

Next Passes (next 24 hours)

TLE

FreshSource: CelesTrak SupGP

Epoch: Sep 14, 2026, 14:00 UTC

1 59297C 24056B   26257.58381944 -.00020110  00000+0 -72915-3 0  2572
2 59297  43.0001 244.1484 0001431 272.5116 342.9791 15.27554207    16

Track STARLINK-31487 in real time with AllMySat

Download on the App Store